Miscellaneous Local Product
Issued by NWS North Platte, NE

Home | Current Version | Previous Version | Graphics & Text | Print | Product List | Glossary On
Versions: 1 2 3 4 5 6 7 8 9 10 11 12 13 14 15 16 17 18 19 20 21 22 23 24 25 26 27 28 29 30 31 32 33 34 35 36 37 38 39 40 41 42 43 44 45 46 47 48 49 50
320
AXUS43 KLBF 240210
MISLBF


WESTERN AND NORTH CENTRAL NEBRASKA HOURLY WEATHER ROUNDUP
NATIONAL WEATHER SERVICE NORTH PLATTE NE
900 PM CDT MON MAY 23 2016

NOTE: "FAIR" INDICATES FEW OR NO CLOUDS BELOW 12,000 FEET WITH NO
SIGNIFICANT WEATHER AND/OR OBSTRUCTIONS TO VISIBILITY.

NOTE: STATIONS NOT REPORTING VARIABLES SUCH AS SKY/WEATHER OR
PRESSURE ARE PROVIDED BY RAWS AND APRS NETWORKS AND ARE NOT UNDER
NATIONAL WEATHER SERVICE QUALITY CONTROL.

...OBSERVATIONS IN AND NEAR THE EASTERN PANHANDLE OF NEBRASKA...

CITY           SKY/WX    TMP DP  RH WIND       PRES   REMARKS
PINE RIDGE     CLOUDY    65  35  33 S21G29    29.80R
CHADRON        PTCLDY    62  36  37 S20G30    29.81R
ALLIANCE       CLOUDY    50  47  89 S8        29.86F
SIDNEY         CLOUDY    52  42  69 NE12      29.88F
CRESCENT LAKE    N/A     53  44  73 N6G22       N/A
BIG SPRINGS      N/A     66  43  43 N12         N/A
$$

...OBSERVATIONS IN NORTHERN NEBRASKA AND FAR SOUTHERN SOUTH DAKOTA...

CITY           SKY/WX    TMP DP  RH WIND       PRES   REMARKS
WINNER         FAIR      69  49  48 W6        29.72R
VALENTINE      MOCLDY    66  42  41 W9        29.77R
THEDFORD       MOCLDY    67  43  41 W8        29.81R
AINSWORTH      CLEAR     64  45  49 SW6       29.76R
O`NEILL        CLOUDY    72  53  52 SE3       29.74S
ORD            CLEAR     67  59  75 CALM      29.74R HAZE
BROKEN BOW     CLEAR     65  51  60 NW5       29.77R
BUTTE            N/A     71  54  55 E3          N/A
CHAMBERS         N/A     67  53  61 CALM        N/A
EWING            N/A     70  64  80 CALM        N/A
$$

...OBSERVATIONS IN SOUTHWEST NEBRASKA AND FAR NORTHEAST COLORADO...

CITY           SKY/WX    TMP DP  RH WIND       PRES   REMARKS
WRAY           FAIR      57  50  77 NE6       29.85F
HOLYOKE        FAIR      63  43  48 N6        29.88R
IMPERIAL       PTCLDY    69  46  43 E3        29.83R
OGALLALA       CLOUDY    60  43  53 NW28G36   29.85R
NORTH PLATTE   CLEAR     63  47  55 NW3       29.79S HAZE
MCCOOK         CLEAR     69  50  50 N3        29.78R
LEXINGTON      CLEAR     71  54  53 CALM      29.77R
PAXTON           N/A     77  41  27 CALM        N/A
STAPLETON        N/A     64  42  44 CALM        N/A
GOTHENBURG       N/A     78  36  22 CALM        N/A
CALLAWAY         N/A     75  44  33 NW3         N/A
$$

...OBSERVATIONS IN CENTRAL LINCOLN COUNTY AREA...

CITY           SKY/WX    TMP DP  RH WIND       PRES   REMARKS
N.P. AIRPORT   CLEAR     63  47  55 NW3       29.79S HAZE
N.P. DOWNTOWN    N/A     71  40  32 CALM        N/A
N.P. SOUTHEAST   N/A     72  37  28 CALM        N/A
N.P. HILLCREST   N/A     70  39  31 N3          N/A
$$

...SOME OBSERVATIONS FROM AROUND THE REGION...

CITY           SKY/WX    TMP DP  RH WIND       PRES   REMARKS
DENVER         MOCLDY    56  44  64 NE6       29.90R
LARAMIE        CLOUDY    53  24  32 MISG      29.94R
CHEYENNE       CLEAR     54  36  50 SW6       29.92R
SCOTTSBLUFF    CLOUDY    51  46  83 SE14      29.86F
RAPID CITY     CLEAR     68  28  22 W12       29.73R
BISMARCK       CLOUDY    69  40  34 N6        29.68S
PIERRE         CLEAR     67  50  54 SE7       29.68R
SIOUX FALLS    CLOUDY    68  61  78 S10       29.76R
OMAHA          CLOUDY    70  63  78 S10       29.76F
GRAND ISLAND   TSTM      59  56  89 SE8       29.79R
KANSAS CITY    PTCLDY    63  61  93 S8        29.86R
WICHITA        CLOUDY    70  63  78 S14       29.79S
OKLAHOMA CITY  CLOUDY    71  69  93 S12       29.83R
DALLAS         CLOUDY    80  69  69 S9        29.84R
AMARILLO       CLEAR     76  59  55 SE17      29.79R
DODGE CITY     CLEAR     71  68  90 SE13      29.74R
HAYS           CLEAR     73  63  68 SE9       29.75S
GOODLAND       CLEAR     67  51  56 SE3       29.81R
$$




USA.gov is the U.S. government's official web portal to all federal, state and local government web resources and services.